View from above orbital plane
|
View from above satellite
|
Ground track
|
The orbit data is extracted from the following two-line orbital elements,
1 20663U 90055A 21018.84453655 -.00000027 00000-0 15596-4 0 9998
2 20663 62.7938 168.9879 0047134 340.3183 19.6090 14.92177894655499
Epoch (UTC): | 18 January 2021 20:16:07 |
Eccentricity: | 0.0047134 |
inclination: | 62.7938° |
perigee height: | 558 km |
apogee height: | 624 km |
right ascension of ascending node: | 168.9879° |
argument of perigee: | 340.3183° |
revolutions per day: | 14.92177894 |
mean anomaly at epoch: | 19.6090° |
orbit number at epoch: | 65549 |
The dashed part of the orbit path shows where the satellite is in the earth's shadow,
|
|